World > North America > United States > Mississippi > Estill

Hourly Estill, MS Regional Weather

Feedback E-mail the Weather

Quick WX

Estill, MS Weather Maps

°F °C°F °C
Estill Weather Map
UTC Time: 8/12/2022, 09:25
Your Time:

Estill, MS Regional Weather

Expires:202208121000;;959938
ASUS44 KJAN 120910
RWRMS 

MISSISSIPPI HOURLY WEATHER ROUNDUP
NATIONAL WEATHER SERVICE JACKSON MS
400 AM CDT FRI AUG 12 2022

NOTE: "FAIR: INDICATES FEW OR NO CLOUDS BELOW 12,000 FEET WITH NO
SIGNIFICANT WEATHER AND/OR OBSTRUCTIONS TO VISIBILITY.


MSZ001>002-007>008-010>013-018>021-025>028-034>036-121000-
NORTHWEST MISSISSIPPI
  
CITY           SKY/WX    TMP DP  RH WIND       PRES   REMARKS
BATESVILLE     FAIR      73  72  94 CALM      30.02F                  
CLARKSDALE     CLEAR     75  75 100 CALM      30.03S                  
CLEVELAND      FAIR      74  74 100 CALM      30.03S                  
GREENWOOD      CLOUDY    78  73  84 CALM      30.02S                  
GREENVILLE     PTCLDY    75  72  90 N5        30.01F                  
OLIVE BRANCH   CLEAR     73  73 100 NE6       30.05R                  
OXFORD         CLEAR     73  73 100 CALM      30.05S                  
TUNICA         CLEAR     73  72  98 N6        30.04S                  
WINONA         FAIR      73  72  99 CALM      30.03S                  
$$


SKY/WX - Weather  TMP - Temperature  DP - Dew Point  RH - Humidity
WIND - Wind Direction/Speed PRES - Barometric Pressure VSB - Visibility
WCI - Wind Chill Index E13G22 Wind - East Wind 13 mph/Gusts of 22 mph

Trending Headlines

Estill Radar Loop



Estill Quick Facts


National Two Day Weather Forecast


E-mail the Estill Weather Forecast

Voice your opinion or tell us about page issues...